Theta_e
315 318 318 320 318 319 321 321 321 322 323 324 324 324 326 326 326 324 326 327 327 327 327 325 324 325 325 326 325 321 315 319 320 323 328 327 329 329 328 328 327 328 325 323
314 315 316 316 317 317 318 320 322 322 322 322 323 325 326 325 325 325 326 327 326 326 327 326 325 325 326 325 325 319 319 320 323 326 328 329 329 328 327 327 327 326 327 325
314 315 318 318 317 320 320 320 320 324 324 323 323 324 325 326 326 327 327 326 325 327 326 326 326 326 326 326 324 319 322 322 326 328 325 328 328 327 327 328 327 326 326 324
313 315 317 317 316 316 321 322 322 323 325 324 323 325 322 324 324 324 325 325 326 327 326 325 326 326 326 326 324 320 325 324 329 330 327 328 325 326 327 327 326 327 326 324
313 314 315 315 315 316 320 322 322 324 325 323 324 323 322 322 325 324 323 325 327 327 325 325 326 326 326 326 324 323 325 325 330 331 329 328 325 325 325 325 326 326 326 325
315 315 314 314 316 316 318 321 321 322 323 323 324 324 326 323 325 325 322 326 326 325 325 326 326 326 327 326 324 324 324 327 331 331 330 327 324 324 325 326 327 328 328 326
316 315 316 315 315 317 318 318 320 322 324 326 324 325 326 323 323 324 324 326 326 326 326 326 327 327 327 326 324 324 326 327 331 329 328 328 327 326 325 327 327 327 327 326
315 317 317 317 316 315 315 317 321 325 325 325 323 324 325 323 323 325 327 327 326 326 326 327 327 328 327 325 324 324 327 327 329 330 327 327 327 327 326 324 328 327 327 326
315 316 318 318 318 316 316 316 319 322 324 323 323 324 325 324 324 325 326 327 327 327 327 327 328 328 327 325 323 324 329 327 328 328 326 328 329 327 325 324 327 326 326 326
316 316 317 318 317 317 316 319 322 319 325 325 324 325 327 323 326 326 326 325 327 327 327 328 328 328 326 325 323 326 328 327 327 326 327 329 329 328 326 324 327 326 327 326
316 316 319 317 317 317 316 317 321 321 321 324 324 324 321 323 322 327 326 326 327 328 328 328 328 328 326 324 323 326 327 326 326 325 327 328 328 328 326 325 326 327 324 327
316 314 316 318 318 318 317 316 320 324 323 321 322 322 323 321 326 327 326 327 328 328 328 328 328 327 325 324 324 325 326 325 325 324 325 327 327 328 326 325 326 326 325 326
317 316 316 320 319 320 317 318 321 319 320 322 322 322 323 325 326 329 328 327 328 328 328 328 328 326 325 324 324 324 326 325 324 322 324 326 326 327 326 326 326 326 326 326
313 317 316 319 321 320 320 319 322 322 322 322 323 324 325 326 329 327 328 328 328 328 328 328 327 326 325 323 323 325 325 325 322 322 323 323 324 325 327 327 325 328 328 328
310 317 316 317 319 321 322 321 322 324 322 324 323 323 324 323 329 328 329 328 327 328 328 328 327 326 325 323 323 325 324 326 322 321 322 321 324 325 328 327 326 328 328 328
309 314 318 317 318 318 319 321 323 324 323 322 323 324 323 323 329 329 328 327 326 327 328 328 327 326 326 323 322 324 325 326 321 320 320 319 325 324 325 327 323 326 328 328
310 314 317 318 318 318 318 320 323 324 324 324 323 321 321 324 326 329 327 327 327 327 327 327 327 327 326 323 322 324 325 326 321 320 320 319 326 326 323 322 323 323 323 325
310 312 313 319 318 320 321 320 322 324 323 324 321 321 323 324 326 329 329 328 327 327 327 327 327 327 326 323 322 324 325 325 322 320 320 318 325 326 325 321 322 324 323 321
310 311 315 321 319 319 320 323 322 323 323 321 323 320 321 325 325 327 329 329 329 328 328 327 327 327 326 324 322 323 324 325 322 320 319 319 318 326 326 323 322 323 322 320
310 311 318 322 319 321 319 324 322 322 325 321 321 321 320 321 324 321 329 329 329 329 328 327 327 327 326 324 322 323 324 325 323 321 319 319 316 320 325 324 323 323 322 318
316 316 317 320 324 321 320 322 323 325 325 322 322 322 321 321 324 326 330 330 330 330 329 328 328 327 327 324 322 323 323 324 324 323 319 320 318 317 320 323 323 323 322 319
320 324 322 322 324 323 322 323 324 323 322 324 324 323 324 326 326 326 329 330 330 329 328 328 328 327 327 325 323 322 323 322 324 323 319 321 319 318 320 318 321 321 321 321
318 318 318 322 322 318 318 319 317 326 327 326 324 325 325 325 327 326 327 331 331 330 330 329 328 328 327 325 324 323 322 322 324 323 320 321 320 318 318 319 319 320 318 323
312 313 314 319 317 313 316 315 315 317 327 328 326 326 326 325 325 328 327 329 331 330 330 329 328 328 327 326 325 326 323 322 323 323 320 321 321 319 318 318 318 319 319 317
312 312 314 317 314 313 315 314 315 315 320 326 329 327 326 326 326 326 327 327 329 330 330 330 329 328 328 327 325 325 323 322 323 324 321 321 321 320 319 318 317 317 317 315
313 312 315 317 313 312 313 313 314 313 317 325 328 329 326 326 326 326 327 328 329 330 330 330 330 329 328 327 326 326 324 323 322 323 322 322 322 321 320 319 318 318 317 317
Wind_Speed
23 9 16 24 25 19 9 6 9 20 19 6 8 15 22 22 11 16 27 31 30 20 24 28 37 33 28 19 12 9 6 1 1 4 7 7 11 13 13 14 14 13 9 10
8 26 22 18 16 15 13 12 16 22 18 5 14 17 21 10 7 20 27 30 23 15 20 33 39 34 27 17 11 9 5 2 1 3 7 10 12 11 11 12 10 13 9 6
25 9 19 20 14 13 17 18 21 19 17 8 9 14 13 11 5 7 14 19 16 22 37 40 37 31 23 16 11 9 5 2 1 4 7 10 12 13 10 7 8 10 6 4
17 22 17 19 18 17 18 19 19 20 12 8 7 5 5 7 7 4 17 16 13 28 36 41 36 29 22 14 12 8 5 2 2 5 8 11 14 12 7 4 6 6 2 2
11 20 25 21 27 22 20 14 18 17 14 8 21 2 8 6 6 8 9 9 23 34 43 41 36 28 18 13 12 8 4 3 2 3 8 9 10 11 9 6 6 5 1 4
18 14 20 25 18 22 24 11 9 8 8 7 16 4 13 5 7 6 1 18 28 32 35 36 31 23 18 15 12 7 5 6 4 3 7 7 8 11 11 7 5 6 2 6
13 21 16 12 23 16 12 7 3 3 6 9 10 6 18 7 9 8 8 21 27 33 36 33 32 26 19 18 13 7 5 4 7 5 6 3 7 9 10 9 8 4 2 8
15 11 25 23 23 19 23 13 6 7 4 4 7 7 11 10 8 16 25 29 32 34 33 35 31 25 20 19 14 6 8 6 8 5 5 3 6 7 9 11 7 6 5 8
15 16 6 25 15 20 8 19 15 3 3 2 4 6 9 1 6 10 17 26 31 34 35 35 30 24 20 19 12 8 10 9 8 3 2 3 6 8 9 10 7 6 5 7
5 6 16 16 17 19 25 6 6 1 11 6 4 3 5 3 8 9 10 17 27 32 34 33 30 25 19 15 13 11 11 10 7 2 1 4 5 8 8 10 6 7 6 7
12 4 5 16 20 28 7 17 6 6 6 7 4 8 7 12 12 14 15 25 35 35 36 34 30 23 20 18 17 13 14 11 8 3 5 2 3 5 6 8 6 7 6 7
21 5 9 16 1 19 14 9 17 7 5 2 6 8 5 8 16 16 16 28 35 37 38 33 29 24 23 23 20 15 14 11 8 3 4 3 2 3 5 8 10 6 7 11
7 15 6 7 2 4 19 16 11 5 4 8 7 7 4 3 11 21 23 29 35 36 36 33 30 28 25 25 20 14 15 13 10 3 4 5 1 2 4 7 11 10 10 11
8 5 27 15 11 7 7 18 13 9 5 6 12 5 5 6 12 9 19 32 37 38 37 36 32 29 27 25 20 16 15 15 11 7 6 5 2 6 7 8 12 11 11 13
5 8 18 29 15 3 4 17 20 14 13 13 7 10 8 11 14 21 32 32 32 37 39 38 35 32 28 26 22 17 13 17 14 11 7 5 10 11 10 10 10 13 12 11
6 6 7 21 30 22 15 8 23 20 9 8 11 7 8 17 26 20 26 31 32 37 41 39 37 34 30 28 24 21 16 19 18 14 9 6 13 12 10 10 11 9 11 12
4 5 7 20 19 20 18 21 12 17 15 13 10 8 8 7 15 23 26 35 37 40 42 41 40 37 32 29 25 24 20 19 20 16 11 7 16 12 10 10 11 10 10 9
8 1 3 6 6 10 11 12 12 18 16 14 6 9 15 9 26 34 43 42 37 42 43 43 42 38 32 28 26 24 24 23 22 18 13 9 18 15 13 12 10 9 8 6
18 6 4 3 14 5 9 7 11 9 9 9 16 11 12 23 17 10 42 48 45 42 43 44 42 38 33 30 28 27 28 25 25 19 16 11 18 18 16 15 12 10 7 11
17 15 5 4 6 13 6 5 9 6 12 10 11 12 11 12 9 5 42 47 45 42 42 45 43 40 35 33 32 31 30 29 27 20 17 14 15 18 19 17 14 11 8 13
5 5 13 5 5 5 5 6 8 15 10 7 20 19 15 10 15 22 37 47 47 45 43 44 44 42 38 36 36 33 32 32 24 18 17 18 13 18 18 18 16 14 11 13
4 3 4 4 5 3 28 7 5 8 20 20 27 31 30 32 31 28 38 48 49 48 45 44 45 44 40 38 38 36 34 29 25 20 20 22 17 17 17 17 17 15 18 16
3 6 5 4 3 2 18 17 13 16 12 17 24 38 36 31 29 28 34 46 48 49 46 44 45 46 42 41 38 36 31 29 28 24 22 24 22 19 18 18 18 18 21 20
3 7 5 10 6 16 11 30 36 36 28 29 12 38 41 36 34 30 28 32 44 48 47 45 46 46 44 44 39 29 30 29 29 27 26 26 27 24 22 20 19 20 21 26
2 6 7 7 11 23 13 33 34 37 33 34 23 9 40 37 36 35 29 28 39 47 48 46 45 44 43 43 41 33 30 31 30 30 28 29 30 27 25 22 19 19 20 23
5 3 0 3 15 9 19 31 31 37 36 32 27 15 4 25 37 35 32 33 40 49 50 46 43 41 43 42 40 35 32 33 31 33 32 32 33 32 29 26 23 20 15 17
Wind_Direction
197 196 213 209 220 229 244 246 256 260 263 268 260 266 267 268 248 226 229 242 248 252 236 218 196 194 199 200 205 206 219 216 50 324 324 320 321 312 305 307 313 322 317 241
215 222 212 224 229 228 231 243 255 273 266 244 274 284 267 262 235 228 235 241 245 220 193 186 186 193 200 194 196 198 191 134 41 335 331 326 329 325 315 305 301 326 309 273
208 219 202 207 213 218 223 227 242 255 282 259 268 282 275 285 266 242 256 259 233 206 176 176 185 190 191 184 191 181 173 131 137 360 338 337 326 327 321 303 300 328 322 279
232 224 203 214 221 214 238 221 234 246 264 258 146 267 287 246 267 286 299 306 218 191 186 181 183 185 179 181 174 174 164 182 148 11 352 355 348 3 354 331 328 347 340 214
203 187 211 222 217 212 233 226 238 247 253 253 277 255 260 266 276 274 268 211 186 183 184 182 185 177 176 178 171 169 169 173 137 333 350 353 9 21 14 340 327 328 313 187
211 190 206 220 224 213 230 240 243 259 245 238 251 177 275 219 224 262 13 183 178 181 180 183 176 175 172 171 171 164 166 147 154 282 340 1 23 32 17 6 354 343 216 185
216 218 220 191 209 219 200 183 250 269 214 228 231 216 248 226 230 213 174 176 181 180 179 177 175 174 173 174 172 169 157 154 181 239 323 345 2 16 18 10 2 33 107 166
207 218 211 208 205 207 222 204 191 187 205 221 207 221 255 231 270 222 177 171 175 178 182 178 177 177 176 175 177 169 151 167 191 238 322 7 20 18 16 15 18 43 116 134
195 226 243 204 202 191 202 211 212 215 294 132 215 273 329 54 111 125 145 154 169 179 180 178 178 180 174 176 182 181 175 182 194 242 324 56 34 31 25 20 44 65 121 130
212 198 233 211 199 225 218 157 164 312 216 221 274 225 221 160 160 153 151 165 170 176 178 177 179 177 178 180 176 177 187 189 193 258 137 51 27 25 31 28 56 65 92 124
250 59 326 200 205 206 177 211 209 170 170 192 209 254 210 200 182 166 177 173 174 178 179 178 180 179 181 181 181 177 180 184 191 248 174 165 11 19 47 39 61 77 120 111
209 133 240 245 286 209 214 186 195 208 219 193 164 254 288 198 167 166 168 174 179 183 180 179 179 180 183 182 182 183 184 192 201 193 185 193 22 30 59 58 43 109 113 119
327 214 252 322 173 241 201 205 190 134 114 185 157 248 240 224 154 169 159 173 179 180 178 177 179 183 186 186 186 186 192 195 191 187 173 189 26 93 91 62 52 113 121 114
324 253 210 216 214 168 198 206 186 163 161 172 203 181 162 161 151 157 168 172 176 179 178 179 183 187 189 189 190 191 188 194 191 190 188 181 116 131 117 86 71 100 126 116
19 255 207 220 247 230 193 207 197 187 185 186 192 173 197 177 176 180 176 169 168 174 180 184 187 189 192 191 191 190 185 192 194 191 185 164 143 123 117 97 98 94 118 131
349 292 241 220 230 237 250 251 203 204 186 138 166 199 196 187 186 164 173 168 173 179 185 190 192 191 193 194 192 189 183 192 197 194 190 161 159 139 131 121 108 112 106 119
285 333 330 221 218 234 241 237 221 196 180 156 178 195 164 155 173 180 177 176 180 184 190 193 195 195 195 197 192 190 186 191 194 194 191 169 167 157 146 142 135 113 104 104
238 264 271 251 171 220 239 204 211 209 181 184 157 166 172 193 192 191 188 183 184 189 194 198 197 198 198 197 192 188 188 192 192 193 191 175 175 168 165 160 150 135 108 106
208 185 273 241 196 255 237 194 184 171 215 178 183 191 178 187 164 178 195 192 191 194 200 200 201 199 194 194 192 189 190 193 194 193 191 192 186 180 182 178 168 152 129 132
184 195 196 323 154 214 207 180 178 127 218 183 176 187 195 154 171 226 194 197 196 195 201 201 202 199 195 191 190 190 193 195 197 197 192 194 188 182 183 182 183 172 150 145
168 186 219 241 287 287 242 170 109 182 221 192 185 189 179 190 200 204 190 196 200 197 201 204 203 198 196 192 191 193 195 199 202 200 192 195 187 185 186 182 189 195 183 159
286 289 192 189 244 89 342 64 90 301 288 209 204 198 191 205 213 210 194 197 199 199 201 204 202 198 197 193 193 195 199 200 199 196 191 199 193 183 187 189 188 194 195 177
259 20 299 360 6 220 17 55 2 356 3 345 217 207 202 189 190 194 189 195 198 198 199 203 204 199 198 196 197 198 202 196 196 196 193 199 199 196 195 196 195 194 197 194
195 306 270 314 0 328 0 7 12 10 2 358 322 216 208 194 188 181 183 187 197 198 195 200 202 201 198 198 201 204 200 195 196 199 200 204 203 203 203 205 206 205 200 199
150 262 326 284 352 340 349 355 355 353 0 3 4 281 210 206 192 192 190 192 193 196 194 197 201 203 203 201 202 202 201 195 196 200 203 208 210 209 207 212 213 215 217 213
181 212 19 324 317 290 305 326 348 353 355 356 357 7 176 203 196 194 190 192 191 190 193 194 200 205 205 202 203 201 201 201 199 198 205 210 211 212 212 213 215 216 220 222